STARLINK-33930, 63776

Orbit data source: Space-Track

STARLINK-33930, 63776 is a payload satellite owned by SpaceX/Seattle (US) in LEO that was launched on Fri, 02 May 2025 UTC via an FALCON 9 launch vehicle from the Air Force Eastern Test Range (AFETR). Payload-class satellites include a variety of spacecraft equipped with specific instruments for various scientific and technological missions. These include communications satellites like Starlink; space stations such as the ISS; scientific satellites like the Hubble; Earth observation satellites from companies like Planet Labs, Umbra, and HawkEye 360; GPS; miniature CubeSats for education and research; and military/defense satellites.

Loading next visibility...
Identifier
63776, 2025-091B
Orbit
LEO
Country
Flag of USUS
Related business
Manufacturer
SpaceX/Seattle
Mission
Operational Commercial Communications
Bus & Motor
STARLINK V2MO, Unknown motor
Mass
575 kg wet, ~530 kg dry
Launch date (UTC)
2025-05-02 (1 year ago)
Launch vehicle
FALCON 9
Launch site
Air Force Eastern Test Range (AFETR)
Object type
Payload
Rocket body
Debris
Shape & HBR
Box + 2 Pan, 17.7 m
Radar Cross Section
36.964 m², Large (>1 m²)

Expand to show TLE details & history
Last TLE update: 19 hours ago

TLE from 19 hours ago
0 STARLINK-33930
1 63776U 25091B   26171.05210717  .00016663  00000-0  61333-3 0  9997
2 63776  43.0021 194.7547 0001639 282.6686  77.3983 15.27599174 64552
Epoch: 2026-06-20T01:15Z
TLE epoch observation values (Epoch: 2026-06-20T01:15:02.059Z)
Latitude
0.00002°
Longitude
-92.27613°
Altitude
482.522 km
Speed
7.626 km/s
True Right ascension
12h 59m 01s
True Declination
0° 00' 00"
Sunlit
Object was in daylight at epoch
Visualization orbit readout
Latitude
Unknown
Longitude
Unknown
Altitude
Unknown
Speed
Unknown
Apparent Right ascension
Unknown
Apparent Declination
Unknown
Sunlit
N/A
Visualization observer readout
Local Sidereal Time
07:17:15
Azimuth
Unknown
Elevation
Unknown
Doppler factor
Unknown
Orbital elements
Apogee altitude
486.061 km
Perigee altitude
483.812 km
Semi-major axis
6,863.074 km
Eccentricity
0.00016
Inclination
43.0021°
RAAN
194.7547°
Arg. of periapsis
282.6686°
True anomaly
77.41663°
Mean anomaly
77.3983°
Eccentric anomaly
77.40746°
Mean motion
3.81738 °/min
Orbital period
94.31 mins
BSTAR
0.00061333
Loading maneuver chart data...
Computing Atmospheric mass density...
Loading historical data...
Loading historical data...
Loading historical data...
Loading historical data...
Loading historical data...
Loading historical data...
Loading historical data...

Documentation

Showing up to 5 results
|